{"data":{"norad_id":64621,"epoch":"2026-09-21T10:43:59.057184Z","epoch_age_seconds":95602,"freshness":"FRESH","line1":"1 64621U 25138A   26264.44721131  .00002258  00000+0  11154-3 0  9992","line2":"2 64621  97.4401 265.3229 0014309 160.5553 199.6230 15.18810318 68478","mean_motion":15.18810318,"eccentricity":0.0014309,"inclination_deg":97.4401,"raan_deg":265.3229,"arg_perigee_deg":160.5553,"mean_anomaly_deg":199.623,"bstar":0.00011154,"rev_number":6847,"period_min":94.811049341317,"perigee_km":499.57952459669,"apogee_km":519.29037800693,"semimajor_km":6887.5719513018,"source":"CELESTRAK","updated_at":"2026-09-22T09:00:29.888129Z"}}